Terminal Aerodrome Forecast
Issued by NWS

Home | Current Version | Previous Version | Text Only | Print | Product List | Glossary On
Versions: 1 2 3 4 5 6 7 8 9 10 11 12 13 14
000
FTUS46 KMTR 252300
TAFOAK
TAF
KOAK 252331Z 2600/2706 34012G20KT P6SM SKC
     FM260300 36005KT P6SM SKC
     FM261300 03004KT P6SM SKC
     FM261900 32008KT P6SM SKC
     FM270300 03003KT P6SM SKC=

USA.gov is the U.S. government's official web portal to all federal, state and local government web resources and services.